{"data":{"norad_id":59927,"intl_designator":"2024-106F","name":"STARLINK-31968","alt_names":[],"object_type":"PAYLOAD","status":"ACTIVE","operator":null,"country":"US","launch_date":"2024-06-01","launch_site_code":"AFETR","launch_vehicle":null,"mission":null,"orbit_class":"UNKNOWN","rcs_meters":null,"size_class":null,"mass_kg":null,"dimensions":null,"purposes":["comms"],"wikipedia_slug":null,"has_3d_model":false,"image_url":null,"decayed_at":null,"tle_current":{"epoch":"2026-09-21T04:19:08.753088Z","epoch_age_seconds":115747,"freshness":"FRESH","line1":"1 59927U 24106F   26264.17996242  .00000418  00000+0  24734-4 0  9991","line2":"2 59927  43.0038 308.2282 0001520 267.7443  92.3234 15.27577374130474","mean_motion":15.27577374,"eccentricity":0.000152,"inclination_deg":43.0038,"raan_deg":308.2282,"arg_perigee_deg":267.7443,"mean_anomaly_deg":92.3234,"bstar":2.4734e-5,"rev_number":13047,"period_min":94.266910764024,"perigee_km":482.01405775781,"apogee_km":484.09986072142,"semimajor_km":6861.1939592396,"source":"CELESTRAK","updated_at":"2026-09-22T09:00:49.111658Z"}}}